Back to catalog

THORAD AGENA D DEB

AliveSSO
NORAD 4998·DEBRIS·🇺🇸 United States

Launched Apr 8, 1970 from Vandenberg Space Force Base

Loading…

Next Passes

TLE

Source: Space-Track
1 04998U 70025HU  26230.21320782 -.00000009  00000-0  57963-4 0  9996
2 04998 100.1934 224.3748 0008855 290.0482 132.9500 13.53088098781631

Track THORAD AGENA D DEB in real time with AllMySat

Download on the App Store